Regional Weather Roundup
Issued by NWS Midland/Odessa, TX

Skip options and go directly to product.
Home | Oldest Version | Previous Version | Current Version | All | Text Only | Save Text | Print | Product List | Glossary Off

Skip product version selection by date and time.   

911
ASUS44 KMAF 281010
RWRMAF
MIDLAND AREA WEATHER ROUNDUP
NATIONAL WEATHER SERVICE MIDLAND TX
500 AM CDT THU JUL 28 2016

...IN SOUTHWEST TEXAS AND SOUTHEAST NEW MEXICO...

CITY           SKY/WX    TMP DP  RH WIND       PRES   REMARKS
ALPINE         CLEAR     65  61  87 CALM      30.17F
ANDREWS        FAIR      74  67  78 SW6       30.05S
ARTESIA        CLEAR     73  59  60 N7        30.09F
BIG SPRING     CLEAR     75  66  74 S5        30.04R
CARLSBAD       CLEAR     73  59  61 NW8       30.05S
DRYDEN           N/A     74  70  87 E8        29.99S
FORT STOCKTON  PTCLDY    73  66  78 SE7       30.03F
GUAD PASS      CLOUDY    73  53  49 NE14      30.21S
HOBBS          CLEAR     70  61  73 NW6       30.10S
MARFA          CLEAR     63  55  75 N7        30.16F
MIDLAND AIRPK  CLEAR     77  68  73 S6        30.03S
MIDLAND INTL   CLEAR     76  67  73 S9        30.02F
ODESSA         CLEAR     76  67  73 SW7       30.04F
PECOS          CLEAR     76  65  70 NE6       30.00S
PRESIDIO       FAIR      80  64  56 NE6       30.00S
SEMINOLE       CLEAR     70  60  70 SW5       30.06S
SNYDER           N/A     72  67  84 CALM      30.02S
WINK           CLOUDY    75  67  76 SE7       30.00F
$$
...OTHER STATIONS IN TEXAS...

CITY           SKY/WX    TMP DP  RH WIND       PRES   REMARKS
ABILENE        PTCLDY    75  68  78 S8        29.99R
AMARILLO       CLEAR     62  59  90 N9        30.13R
AUSTIN         CLOUDY    75  74  96 CALM      29.98R
BROWNSVILLE    MOCLDY    82  78  88 S9        29.93S
CORPUS CHRISTI CLOUDY    83  79  88 S8        29.93F
DALLAS FTW     CLOUDY    81  70  69 SW8       29.94R
DEL RIO        MOCLDY    76  72  87 E6        29.94F
EL PASO        PTCLDY    78  61  55 N3        30.08S
HOUSTON INT    CLOUDY    82  78  88 S3        29.97R
LUBBOCK        PTCLDY    67  61  81 N6        30.06R
SAN ANGELO     CLEAR     73  67  81 CALM      29.99R
SAN ANTONIO    MOCLDY    77  74  90 SE6       29.99S
WACO           CLOUDY    78  72  81 S10       29.96R
WICHITA FALLS  NOT AVBL
$$
...OTHER LOCATIONS IN NEW MEXICO...

CITY           SKY/WX    TMP DP  RH WIND       PRES   REMARKS
ALAMAGORDO     CLOUDY    72  55  56 E6        30.12S
ALBUQUERQUE    PTCLDY    73  54  51 E15       30.22S
CANNON AFB     CLEAR     65  57  76 NW8       30.15S
CLOVIS         CLEAR     64  52  63 W7        30.15S
HOLLOMAN AFB   CLOUDY    74  57  56 NE3       30.09F
ROSWELL        CLEAR     72  59  63 N6        30.10F
RUIDOSO          N/A     64  52  63 SW5       30.35S
SANTA FE       CLEAR     68  52  56 SE15      30.30R
TRUTH OR CONSE CLEAR     70  56  61 NW7       30.16S
TUCUMCARI      CLEAR     69  57  65 NW12      30.14S
$$

USA.gov is the U.S. government's official web portal to all federal, state and local government web resources and services.